| time (UTC) | temp C | wind direction | speed KPH | gust KPH | rain 1hr cm | rain 24hr cm | rain mn cm | humidity % | barometer mb |
| 20260901011558 | 13 | 0.0 | 0.0 | 0.00 | 0.46 | 0.00 | 95 | 1008.8 | |
| 20260901010108 | 13 | 0.0 | 0.0 | 0.00 | 0.46 | 0.00 | 95 | 1008.7 | |
| 20260901004603 | 14 | 0.0 | 0.0 | 0.00 | 0.46 | 0.00 | 95 | 1008.7 | |
| 20260901003058 | 14 | 0.0 | 0.0 | 0.00 | 0.46 | 0.00 | 95 | 1008.6 | |
| 20260901001602 | 14 | 0.0 | 0.0 | 0.00 | 0.46 | 0.00 | 94 | 1008.4 | |
| 20260901000100 | 14 | 0.0 | 0.0 | 0.00 | 0.46 | 0.00 | 94 | 1008.6 | |
| 20260831234559 | 15 | 0.0 | 0.0 | 0.00 | 0.46 | 0.00 | 94 | 1008.5 | |
| 20260831233104 | 15 | 0.0 | 0.0 | 0.00 | 0.46 | 0.00 | 94 | 1008.5 | |
| 20260831231604 | 15 | 0.0 | 0.0 | 0.00 | 0.46 | 0.00 | 94 | 1008.5 | |
| 20260831230057 | 15 | 0.0 | 0.0 | 0.00 | 0.46 | 0.00 | 94 | 1008.5 | |
| 20260831224557 | 15 | 0.0 | 0.0 | 0.00 | 0.46 | 0.00 | 94 | 1008.5 | |
| 20260831223054 | 15 | 0.0 | 0.0 | 0.00 | 0.46 | 0.00 | 94 | 1008.4 | |
| 20260831221624 | 15 | 0.0 | 0.0 | 0.00 | 0.46 | 0.00 | 94 | 1008.5 | |
| 20260831220057 | 15 | 0.0 | 0.0 | 0.00 | 0.46 | 0.00 | 94 | 1008.5 | |
| 20260831214558 | 15 | 0.0 | 0.0 | 0.00 | 0.46 | 0.46 | 94 | 1008.5 | |
| 20260831213055 | 15 | 0.0 | 0.0 | 0.00 | 0.46 | 0.46 | 93 | 1008.4 | |
| 20260831211559 | 15 | 0.0 | 0.0 | 0.00 | 0.46 | 0.46 | 93 | 1008.4 | |
| 20260831210100 | 15 | 0.0 | 0.0 | 0.00 | 0.46 | 0.46 | 93 | 1008.2 | |
| 20260831204603 | 15 | 0.0 | 0.0 | 0.00 | 0.46 | 0.46 | 93 | 1008.0 | |
| 20260831203125 | 16 | 0.0 | 0.0 | 0.00 | 0.46 | 0.46 | 93 | 1007.9 | |
| 20260831201607 | 15 | 0.0 | 0.0 | 0.00 | 0.46 | 0.46 | 93 | 1007.9 | |
| 20260831200139 | 15 | 0.0 | 0.0 | 0.00 | 0.46 | 0.46 | 93 | 1008.1 | |
| 20260831194612 | 16 | 0.0 | 0.0 | 0.00 | 0.46 | 0.46 | 93 | 1008.0 | |
| 20260831193102 | 16 | 0.0 | 0.0 | 0.00 | 0.46 | 0.46 | 92 | 1008.0 | |
| 20260831191610 | 16 | 0.0 | 0.0 | 0.00 | 0.46 | 0.46 | 92 | 1008.1 | |
| 20260831184606 | 16 | 0.0 | 0.0 | 0.00 | 0.46 | 0.46 | 90 | 1007.7 | |
| 20260831183104 | 16 | 0.0 | 0.0 | 0.00 | 0.46 | 0.46 | 89 | 1007.4 | |
| 20260831181605 | 16 | 0.0 | 0.0 | 0.00 | 0.46 | 0.46 | 88 | 1007.2 | |
| 20260831180118 | 17 | 0.0 | 0.0 | 0.00 | 0.46 | 0.46 | 88 | 1007.4 | |
| 20260831174604 | 17 | 0.0 | 0.0 | 0.00 | 0.46 | 0.46 | 87 | 1007.4 | |
| 20260831173107 | 17 | 0.0 | 0.0 | 0.00 | 0.46 | 0.46 | 87 | 1007.2 | |
| 20260831171606 | 17 | 0.0 | 0.0 | 0.00 | 0.46 | 0.46 | 87 | 1006.8 | |
| 20260831170127 | 17 | 0.0 | 0.0 | 0.00 | 0.46 | 0.46 | 86 | 1007.1 | |
| 20260831164602 | 17 | 0.0 | 0.0 | 0.03 | 0.46 | 0.46 | 86 | 1007.0 | |
| 20260831163057 | 18 | 0.0 | 0.0 | 0.05 | 0.46 | 0.46 | 86 | 1007.2 | |
| 20260831161601 | 18 | 0.0 | 0.0 | 0.05 | 0.46 | 0.46 | 85 | 1007.1 | |
| 20260831160105 | 18 | 0.0 | 0.0 | 0.05 | 0.46 | 0.46 | 84 | 1007.1 | |
| 20260831154624 | 19 | 0.0 | 0.0 | 0.00 | 0.69 | 0.41 | 80 | 1007.2 | |
| 20260831153101 | 19 | 0.0 | 0.0 | 0.00 | 0.66 | 0.38 | 81 | 1007.1 | |
| 20260831151558 | 20 | 0.0 | 0.0 | 0.00 | 0.66 | 0.38 | 85 | 1007.1 | |
| 20260831150106 | 20 | 0.0 | 0.0 | 0.03 | 0.66 | 0.38 | 86 | 1006.9 | |
| 20260831144607 | 20 | 0.0 | 0.0 | 0.03 | 0.69 | 0.38 | 86 | 1007.2 | |
| 20260831143059 | 20 | 0.0 | 0.0 | 0.03 | 0.69 | 0.38 | 86 | 1007.0 | |
| 20260831141616 | 20 | 0.0 | 0.0 | 0.00 | 0.66 | 0.36 | 83 | 1007.2 | |
| 20260831140105 | 20 | 0.0 | 0.0 | 0.00 | 0.64 | 0.36 | 80 | 1007.2 | |
| 20260831134601 | 20 | 0.0 | 0.0 | 0.00 | 0.66 | 0.36 | 82 | 1007.0 | |
| 20260831133103 | 20 | 0.0 | 0.0 | 0.00 | 0.66 | 0.36 | 80 | 1007.1 | |
| 20260831131603 | 20 | 0.0 | 0.0 | 0.00 | 0.66 | 0.36 | 82 | 1007.1 | |
| 20260831130110 | 20 | 0.0 | 0.0 | 0.00 | 0.66 | 0.36 | 83 | 1007.0 | |
| 20260831124559 | 20 | 0.0 | 0.0 | 0.00 | 0.66 | 0.36 | 84 | 1007.0 | |
| 20260831123103 | 20 | 0.0 | 0.0 | 0.00 | 0.66 | 0.36 | 83 | 1007.0 | |
| 20260831121602 | 19 | 0.0 | 0.0 | 0.00 | 0.66 | 0.36 | 84 | 1007.1 | |
| 20260831120144 | 20 | 0.0 | 0.0 | 0.00 | 0.66 | 0.36 | 85 | 1007.3 | |
| 20260831114610 | 19 | 0.0 | 0.0 | 0.00 | 0.71 | 0.36 | 87 | 1007.3 | |
| 20260831113104 | 18 | 0.0 | 0.0 | 0.00 | 0.71 | 0.36 | 91 | 1007.2 | |
| 20260831111602 | 18 | 0.0 | 0.0 | 0.00 | 0.71 | 0.36 | 93 | 1007.4 | |
| 20260831110105 | 17 | 0.0 | 0.0 | 0.00 | 0.71 | 0.36 | 93 | 1007.7 | |
| 20260831104607 | 17 | 0.0 | 0.0 | 0.00 | 0.89 | 0.36 | 92 | 1007.8 | |
| 20260831103100 | 17 | 0.0 | 0.0 | 0.00 | 0.89 | 0.36 | 92 | 1007.8 | |
| 20260831101611 | 18 | 0.0 | 0.0 | 0.00 | 0.89 | 0.36 | 92 | 1007.8 | |
| 20260831100115 | 18 | 0.0 | 0.0 | 0.00 | 0.89 | 0.36 | 94 | 1007.8 | |
| 20260831094603 | 17 | 0.0 | 0.0 | 0.00 | 0.91 | 0.36 | 95 | 1007.9 | |
| 20260831093110 | 17 | 0.0 | 0.0 | 0.00 | 0.91 | 0.36 | 96 | 1008.1 | |
| 20260831091606 | 17 | 0.0 | 0.0 | 0.00 | 0.91 | 0.36 | 96 | 1008.0 | |
| 20260831090115 | 16 | 0.0 | 0.0 | 0.00 | 0.91 | 0.36 | 96 | 1008.3 | |
| 20260831084609 | 16 | 0.0 | 0.0 | 0.23 | 0.91 | 0.36 | 96 | 1008.4 | |
| 20260831083102 | 16 | 0.0 | 0.0 | 0.36 | 0.91 | 0.36 | 96 | 1008.4 | |
| 20260831081609 | 16 | 0.0 | 0.0 | 0.36 | 0.91 | 0.36 | 96 | 1008.3 | |
| 20260831080058 | 16 | 0.0 | 0.0 | 0.36 | 0.91 | 0.36 | 96 | 1008.2 | |
| 20260831074600 | 16 | 0.0 | 0.0 | 0.08 | 0.64 | 0.08 | 96 | 1008.5 | |
| 20260831073058 | 16 | 0.0 | 0.0 | 0.00 | 0.56 | 0.00 | 96 | 1008.6 | |
| 20260831071615 | 16 | 0.0 | 0.0 | 0.00 | 0.56 | 0.00 | 96 | 1008.6 | |
| 20260831070110 | 16 | 0.0 | 0.0 | 0.00 | 0.56 | 0.00 | 97 | 1008.8 | |
| 20260831064600 | 16 | 0.0 | 0.0 | 0.00 | 0.56 | 0.00 | 97 | 1008.7 | |
| 20260831063101 | 15 | 0.0 | 0.0 | 0.00 | 0.56 | 0.00 | 97 | 1008.5 | |
| 20260831061610 | 15 | 0.0 | 0.0 | 0.00 | 0.56 | 0.00 | 97 | 1008.5 | |
| 20260831060111 | 14 | 0.0 | 0.0 | 0.00 | 0.56 | 0.00 | 97 | 1008.6 | |
| 20260831054601 | 12 | 0.0 | 0.0 | 0.00 | 0.64 | 0.00 | 97 | 1008.7 | |
| 20260831053151 | 11 | 0.0 | 0.0 | 0.00 | 0.64 | 0.00 | 96 | 1008.8 | |
| 20260831051607 | 11 | 0.0 | 0.0 | 0.00 | 0.64 | 0.00 | 96 | 1008.9 | |
| 20260831050121 | 11 | 0.0 | 0.0 | 0.00 | 0.64 | 0.00 | 96 | 1009.0 | |
| 20260831044603 | 11 | 0.0 | 0.0 | 0.00 | 0.71 | 0.00 | 95 | 1009.1 | |
| 20260831043058 | 11 | 0.0 | 0.0 | 0.00 | 0.71 | 0.00 | 95 | 1009.3 | |
| 20260831041615 | 11 | 0.0 | 0.0 | 0.00 | 0.71 | 0.00 | 95 | 1009.1 | |
| 20260831034609 | 12 | 0.0 | 0.0 | 0.00 | 0.71 | 0.00 | 95 | 1009.1 | |
| 20260831033113 | 12 | 0.0 | 0.0 | 0.00 | 0.71 | 0.00 | 95 | 1009.0 | |
| 20260831031606 | 12 | 0.0 | 0.0 | 0.00 | 0.71 | 0.00 | 95 | 1009.2 | |
| 20260831024602 | 12 | 0.0 | 0.0 | 0.00 | 0.71 | 0.00 | 95 | 1009.4 | |
| 20260831023058 | 12 | 0.0 | 0.0 | 0.00 | 0.71 | 0.00 | 95 | 1009.4 | |
| 20260831021602 | 13 | 0.0 | 0.0 | 0.00 | 0.71 | 0.00 | 95 | 1009.4 | |
| 20260831020110 | 13 | 0.0 | 0.0 | 0.00 | 0.71 | 0.00 | 95 | 1009.6 | |
| 20260831014558 | 13 | 0.0 | 0.0 | 0.00 | 0.74 | 0.00 | 95 | 1009.6 | |
| 20260831013106 | 13 | 0.0 | 0.0 | 0.00 | 0.74 | 0.00 | 95 | 1009.4 |